When you browse on this site, cookies collect data to enhance your experience and personalize the content and advertising you see.
Visit our Privacy Policy to learn more. By continuing to use the site, you agree to this use of cookies and data.

Hourly Weather Nam Dinh

Today, 12 July, Sunday

Time Temperature Precipitation Wind Pressure Humidity
00:00 +33°C° 0 mm 5 mps 752 mmHg 75%
01:00 +33°C° 0 mm 5 mps 752 mmHg 77%
02:00 +33°C° 0 mm 5 mps 751 mmHg 78%
03:00 +33°C° 0 mm 5 mps 751 mmHg 78%
04:00 +33°C° 0 mm 5 mps 751 mmHg 78%
05:00 +33°C° 0 mm 5 mps 751 mmHg 77%
06:00 +33°C° 0 mm 4 mps 751 mmHg 75%
07:00 +33°C° 0 mm 4 mps 752 mmHg 74%
08:00 +34°C° 0 mm 4 mps 752 mmHg 68%
09:00 +35°C° 0 mm 4 mps 752 mmHg 63%
10:00 +36°C° 0 mm 3 mps 752 mmHg 57%
11:00 +37°C° 0 mm 3 mps 752 mmHg 53%
12:00 +38°C° 0 mm 3 mps 752 mmHg 50%
13:00 +39°C° 0 mm 3 mps 751 mmHg 46%
14:00 +39°C° 0 mm 3 mps 751 mmHg 48%
15:00 +38°C° 0 mm 3 mps 751 mmHg 49%
16:00 +38°C° 0 mm 3 mps 751 mmHg 51%
17:00 +36°C° 0.3 mm 2 mps 751 mmHg 58%
18:00 +34°C° 0.3 mm 2 mps 751 mmHg 65%
19:00 +31°C° 0.3 mm 2 mps 752 mmHg 72%
20:00 +31°C° 0.7 mm 2 mps 752 mmHg 74%
21:00 +30°C° 0.7 mm 1 mps 753 mmHg 76%
22:00 +30°C° 0.7 mm 1 mps 754 mmHg 79%
23:00 +30°C° 0.3 mm 2 mps 753 mmHg 80%

Tomorrow, 13 July, Monday

Time Temperature Precipitation Wind Pressure Humidity
00:00 +30°C° 0.3 mm 2 mps 753 mmHg 81%
01:00 +30°C° 0.3 mm 2 mps 753 mmHg 82%
02:00 +29°C° 0.3 mm 2 mps 753 mmHg 83%
03:00 +29°C° 0.3 mm 2 mps 753 mmHg 84%
04:00 +29°C° 0.3 mm 2 mps 753 mmHg 85%
05:00 +30°C° 0.1 mm 2 mps 753 mmHg 82%
06:00 +30°C° 0.1 mm 1 mps 753 mmHg 78%
07:00 +31°C° 0.1 mm 1 mps 753 mmHg 75%
08:00 +34°C° 0.1 mm 2 mps 754 mmHg 67%
09:00 +36°C° 0.1 mm 2 mps 754 mmHg 60%
10:00 +38°C° 0.1 mm 2 mps 754 mmHg 53%
11:00 +39°C° 0.1 mm 3 mps 754 mmHg 51%
12:00 +39°C° 0.1 mm 3 mps 753 mmHg 48%
13:00 +41°C° 0.1 mm 4 mps 753 mmHg 46%
14:00 +40°C° 0.1 mm 4 mps 752 mmHg 50%
15:00 +39°C° 0.1 mm 5 mps 752 mmHg 53%
16:00 +37°C° 0.1 mm 5 mps 751 mmHg 57%
17:00 +36°C° 0 mm 5 mps 752 mmHg 63%
18:00 +34°C° 0 mm 4 mps 752 mmHg 69%
19:00 +33°C° 0 mm 4 mps 752 mmHg 75%
20:00 +32°C° 0.5 mm 4 mps 753 mmHg 78%
21:00 +31°C° 0.5 mm 3 mps 754 mmHg 82%
22:00 +31°C° 0.5 mm 3 mps 754 mmHg 85%
23:00 +30°C° 0.2 mm 3 mps 754 mmHg 86%

Day after tomorrow, 14 July, Tuesday

Time Temperature Precipitation Wind Pressure Humidity
00:00 +30°C° 0.2 mm 2 mps 754 mmHg 87%
01:00 +30°C° 0.2 mm 2 mps 754 mmHg 88%
02:00 +30°C° 0.1 mm 2 mps 754 mmHg 88%
03:00 +30°C° 0.1 mm 2 mps 753 mmHg 88%
04:00 +30°C° 0.1 mm 2 mps 753 mmHg 88%
05:00 +30°C° 0 mm 2 mps 753 mmHg 84%
06:00 +31°C° 0 mm 2 mps 754 mmHg 80%
07:00 +32°C° 0 mm 2 mps 754 mmHg 75%
08:00 +34°C° 0 mm 2 mps 754 mmHg 67%
09:00 +36°C° 0 mm 3 mps 754 mmHg 59%
10:00 +38°C° 0 mm 3 mps 755 mmHg 50%
11:00 +38°C° 0 mm 4 mps 754 mmHg 49%
12:00 +40°C° 0 mm 4 mps 753 mmHg 48%
13:00 +40°C° 0 mm 5 mps 753 mmHg 47%
14:00 +39°C° 0 mm 5 mps 752 mmHg 50%
15:00 +39°C° 0 mm 5 mps 752 mmHg 53%
16:00 +37°C° 0 mm 5 mps 751 mmHg 55%
17:00 +36°C° 0 mm 5 mps 751 mmHg 63%
18:00 +34°C° 0 mm 4 mps 751 mmHg 70%
19:00 +33°C° 0 mm 4 mps 752 mmHg 77%
20:00 +32°C° 0 mm 4 mps 752 mmHg 79%
21:00 +31°C° 0 mm 3 mps 753 mmHg 80%
22:00 +31°C° 0 mm 3 mps 754 mmHg 82%
23:00 +31°C° 0 mm 3 mps 754 mmHg 82%

15 July, Wednesday

Time Temperature Precipitation Wind Pressure Humidity
00:00 +30°C° 0 mm 3 mps 753 mmHg 83%
01:00 +30°C° 0 mm 3 mps 753 mmHg 84%
02:00 +30°C° 0 mm 3 mps 753 mmHg 85%
03:00 +30°C° 0 mm 3 mps 753 mmHg 85%
04:00 +30°C° 0 mm 2 mps 752 mmHg 86%
05:00 +30°C° 0 mm 3 mps 753 mmHg 83%
06:00 +32°C° 0 mm 4 mps 753 mmHg 80%
07:00 +33°C° 0 mm 4 mps 753 mmHg 77%
08:00 +34°C° 0 mm 4 mps 753 mmHg 71%
09:00 +35°C° 0 mm 5 mps 753 mmHg 64%
10:00 +37°C° 0 mm 5 mps 753 mmHg 58%
11:00 +37°C° 0 mm 5 mps 753 mmHg 57%
12:00 +39°C° 0 mm 5 mps 752 mmHg 56%
13:00 +39°C° 0 mm 5 mps 752 mmHg 55%
14:00 +39°C° 0 mm 5 mps 751 mmHg 56%
15:00 +37°C° 0 mm 5 mps 750 mmHg 58%
16:00 +37°C° 0 mm 5 mps 749 mmHg 59%
17:00 +35°C° 0 mm 5 mps 750 mmHg 66%
18:00 +34°C° 0 mm 5 mps 750 mmHg 72%
19:00 +32°C° 0 mm 5 mps 750 mmHg 79%
20:00 +32°C° 0 mm 4 mps 751 mmHg 80%
21:00 +32°C° 0 mm 4 mps 751 mmHg 81%
22:00 +31°C° 0 mm 3 mps 752 mmHg 82%
23:00 +31°C° 0.1 mm 3 mps 752 mmHg 83%

16 July, Thursday

Time Temperature Precipitation Wind Pressure Humidity
00:00 +31°C° 0.1 mm 3 mps 751 mmHg 84%
01:00 +30°C° 0.1 mm 3 mps 751 mmHg 84%
02:00 +30°C° 0 mm 4 mps 751 mmHg 84%
03:00 +30°C° 0 mm 4 mps 751 mmHg 84%
04:00 +30°C° 0 mm 4 mps 751 mmHg 84%
05:00 +32°C° 0 mm 4 mps 751 mmHg 83%
06:00 +32°C° 0 mm 5 mps 752 mmHg 81%
07:00 +33°C° 0 mm 5 mps 752 mmHg 79%
08:00 +34°C° 0 mm 5 mps 752 mmHg 72%
09:00 +36°C° 0 mm 5 mps 752 mmHg 65%
10:00 +37°C° 0 mm 5 mps 752 mmHg 58%
11:00 +39°C° 0 mm 5 mps 751 mmHg 54%
12:00 +40°C° 0 mm 5 mps 751 mmHg 50%
13:00 +41°C° 0 mm 5 mps 750 mmHg 46%
14:00 +40°C° 0 mm 5 mps 750 mmHg 48%
15:00 +39°C° 0 mm 6 mps 749 mmHg 51%
16:00 +39°C° 0 mm 6 mps 749 mmHg 53%
17:00 +36°C° 0 mm 6 mps 749 mmHg 60%
18:00 +34°C° 0 mm 5 mps 749 mmHg 67%
19:00 +33°C° 0 mm 5 mps 750 mmHg 73%
20:00 +33°C° 0.1 mm 5 mps 750 mmHg 75%
21:00 +33°C° 0.1 mm 5 mps 751 mmHg 77%
22:00 +33°C° 0.1 mm 4 mps 752 mmHg 79%
23:00 +32°C° 0.1 mm 5 mps 752 mmHg 79%

17 July, Friday

Time Temperature Precipitation Wind Pressure Humidity
00:00 +32°C° 0.1 mm 5 mps 751 mmHg 79%
01:00 +32°C° 0.1 mm 5 mps 751 mmHg 79%
02:00 +32°C° 0 mm 5 mps 751 mmHg 80%
03:00 +32°C° 0 mm 5 mps 751 mmHg 80%
04:00 +32°C° 0 mm 5 mps 751 mmHg 81%
05:00 +32°C° 0 mm 5 mps 751 mmHg 80%
06:00 +33°C° 0 mm 5 mps 751 mmHg 79%
07:00 +33°C° 0 mm 5 mps 751 mmHg 78%
08:00 +34°C° 0 mm 5 mps 752 mmHg 70%
09:00 +36°C° 0 mm 5 mps 752 mmHg 62%
10:00 +37°C° 0 mm 5 mps 752 mmHg 55%
11:00 +39°C° 0 mm 5 mps 751 mmHg 51%
12:00 +40°C° 0 mm 5 mps 751 mmHg 48%
13:00 +41°C° 0 mm 6 mps 750 mmHg 44%
14:00 +40°C° 0 mm 6 mps 750 mmHg 46%
15:00 +40°C° 0 mm 6 mps 749 mmHg 47%
16:00 +39°C° 0 mm 6 mps 749 mmHg 49%
17:00 +38°C° 0 mm 6 mps 749 mmHg 55%
18:00 +35°C° 0 mm 6 mps 749 mmHg 60%
19:00 +34°C° 0 mm 6 mps 750 mmHg 65%
20:00 +34°C° 0 mm 6 mps 750 mmHg 68%
21:00 +33°C° 0 mm 7 mps 751 mmHg 71%
22:00 +33°C° 0 mm 8 mps 752 mmHg 74%
23:00 +33°C° 0 mm 8 mps 751 mmHg 73%
Show more